Date String (YYYY-MM-DD hh:mm:ss) UTC,Instrument flags,Ambient pressure (hPa),Sample flow (lpm),Bypass flow (lpm),Sample temperature (°C),Ambient temperature (°C),ASC tube jacket temperature (°C),LED temperature (°C),Box temperature (°C),Sample RH (%),Span deviation,Mass concentration (μg/m³),Mass concentration (μg/m³),Mass concentration (μg/m³)
DateTimeUTC,F1_M11,P_M11,Q1_M11,Q2_M11,T1_M11,T2_M11,T3_M11,T4_M11,T5_M11,U1_M11,ZSPAN_M11,X2_M11,X0_M11,X1_M11
2021-09-26 05:00:00,,0825.9,5.00,0.00,29.5,27.6,00.0,38.7,31.2,09.7,0001.9,0006.18,0010.62,0005.65
2021-09-26 05:01:00,,0826.0,4.99,0.00,29.5,27.9,00.0,38.7,31.2,09.8,0001.9,0006.20,0010.66,0005.66
2021-09-26 05:02:00,,0826.0,5.00,0.00,29.6,28.0,00.0,38.7,31.2,09.7,0001.7,0006.21,0010.40,0005.69
2021-09-26 05:03:00,,0826.0,4.99,0.00,29.6,28.2,00.0,38.7,31.3,09.7,0001.4,0006.21,0010.39,0005.70
2021-09-26 05:04:00,,0825.9,5.02,0.00,29.6,28.3,00.0,38.7,31.3,09.7,0001.3,0006.22,0010.42,0005.70
2021-09-26 05:05:00,,0826.0,4.99,0.00,29.6,28.4,00.0,38.7,31.3,09.6,0001.7,0006.24,0010.48,0005.71
2021-09-26 05:06:00,,0826.0,5.01,0.00,29.6,28.5,00.0,38.7,31.4,09.6,0001.4,0006.24,0010.50,0005.71
2021-09-26 05:07:00,,0826.0,5.00,0.00,29.7,28.6,00.0,38.7,31.4,09.7,0001.5,0006.26,0010.34,0005.69
2021-09-26 05:08:00,,0825.9,4.99,0.00,29.7,28.6,00.0,38.7,31.5,09.7,0001.5,0006.29,0009.96,0005.70
2021-09-26 05:09:00,,0825.9,5.01,0.00,29.7,28.7,00.0,38.7,31.5,09.6,0001.6,0006.37,0010.55,0005.71
2021-09-26 05:10:00,,0825.9,5.00,0.00,29.7,28.7,00.0,38.8,31.5,09.6,0001.4,0006.40,0010.59,0005.72
2021-09-26 05:11:00,,0825.9,5.00,0.00,29.8,28.8,00.0,38.8,31.5,09.6,0001.3,0006.40,0010.65,0005.74
2021-09-26 05:12:00,,0825.9,5.00,0.00,29.8,28.8,00.0,38.8,31.5,09.6,0001.2,0006.44,0010.68,0005.78
2021-09-26 05:13:00,,0826.0,5.01,0.00,29.8,28.8,00.0,38.8,31.5,09.6,0001.7,0006.48,0010.79,0005.81
2021-09-26 05:14:00,,0825.9,4.99,0.00,29.8,28.9,00.0,38.8,31.6,09.6,0001.8,0006.54,0010.95,0005.83
2021-09-26 05:15:00,,0826.0,5.00,0.00,29.9,28.9,00.0,38.9,31.6,09.5,0001.9,0006.58,0011.16,0005.85
2021-09-26 05:16:00,,0825.9,5.00,0.00,29.9,28.9,00.0,38.9,31.7,09.5,0001.8,0006.57,0011.01,0005.87
2021-09-26 05:17:00,,0825.9,5.01,0.00,29.9,28.9,00.0,38.9,31.7,09.4,0002.5,0006.62,0011.17,0005.90
2021-09-26 05:18:00,,0825.9,5.00,0.00,29.9,29.0,00.0,38.9,31.7,09.5,0002.3,0006.69,0011.27,0005.95
2021-09-26 05:19:00,,0826.0,5.00,0.00,29.9,29.0,00.0,38.9,31.7,09.7,0001.9,0006.73,0011.41,0006.00
2021-09-26 05:20:00,,0825.9,5.01,0.00,30.0,29.0,00.0,38.9,31.7,09.5,0002.2,0006.73,0011.13,0006.03
2021-09-26 05:21:00,,0826.0,5.00,0.00,30.0,28.9,00.0,39.0,31.7,09.4,0002.4,0006.74,0011.11,0006.08
2021-09-26 05:22:00,,0826.0,5.00,0.00,29.9,27.2,00.0,39.0,31.3,09.4,0002.8,0006.79,0011.15,0006.10
2021-09-26 05:23:00,,0826.0,5.00,0.00,29.7,26.2,00.0,38.9,31.0,09.8,0002.7,0006.81,0011.17,0006.10
2021-09-26 05:24:00,,0826.0,5.01,0.00,29.7,26.3,00.0,38.9,31.1,09.7,0001.9,0006.84,0011.22,0006.12
2021-09-26 05:25:00,,0825.9,5.00,0.00,29.6,26.8,00.0,38.9,31.1,09.6,0001.4,0006.86,0011.25,0006.16
2021-09-26 05:26:00,,0825.9,5.01,0.00,29.6,27.1,00.0,38.8,31.1,09.6,0001.2,0006.91,0011.15,0006.21
2021-09-26 05:27:00,,0826.0,5.00,0.00,29.6,27.5,00.0,38.8,31.2,09.7,0000.9,0006.98,0011.31,0006.24
2021-09-26 05:28:00,,0825.9,4.99,0.00,29.6,27.7,00.0,38.8,31.2,09.8,0000.5,0006.99,0011.27,0006.26
2021-09-26 05:29:00,,0826.0,5.01,0.00,29.6,27.9,00.0,38.8,31.2,09.7,0000.7,0006.96,0011.26,0006.25
2021-09-26 05:30:00,,0826.0,4.98,0.00,29.6,28.1,00.0,38.8,31.3,09.8,0001.3,0006.93,0011.16,0006.25
2021-09-26 05:31:00,,0825.9,5.00,0.00,29.6,28.2,00.0,38.7,31.3,09.7,0001.2,0006.94,0011.00,0006.27
2021-09-26 05:32:00,,0826.0,5.00,0.00,29.6,28.3,00.0,38.7,31.3,09.7,0001.0,0006.97,0011.09,0006.29
2021-09-26 05:33:00,,0826.0,4.99,0.00,29.7,28.4,00.0,38.7,31.3,09.8,0000.6,0006.96,0011.06,0006.29
2021-09-26 05:34:00,,0826.0,4.99,0.00,29.7,28.5,00.0,38.8,31.4,09.8,0001.0,0006.98,0011.38,0006.30
2021-09-26 05:35:00,,0826.0,5.00,0.00,29.7,28.6,00.0,38.8,31.4,09.7,0001.0,0006.99,0011.69,0006.30
2021-09-26 05:36:00,,0826.0,5.00,0.00,29.7,28.6,00.0,38.8,31.5,09.8,0001.4,0007.00,0011.93,0006.30
2021-09-26 05:37:00,,0826.0,5.01,0.00,29.8,28.7,00.0,38.8,31.5,09.7,0001.6,0006.95,0012.19,0006.29
2021-09-26 05:38:00,,0826.0,4.99,0.00,29.8,28.7,00.0,38.8,31.5,09.8,0001.9,0006.96,0012.57,0006.29
2021-09-26 05:39:00,,0826.0,5.00,0.00,29.8,28.8,00.0,38.8,31.6,09.7,0002.0,0006.96,0012.81,0006.30
2021-09-26 05:40:00,,0826.0,5.00,0.00,29.8,28.8,00.0,38.8,31.6,09.7,0002.2,0006.98,0012.92,0006.32
2021-09-26 05:41:00,,0826.0,5.00,0.00,29.9,28.9,00.0,38.8,31.6,09.7,0002.4,0007.00,0013.13,0006.34
2021-09-26 05:42:00,,0826.0,5.00,0.00,29.9,28.9,00.0,38.8,31.7,09.7,0002.3,0006.97,0013.63,0006.35
2021-09-26 05:43:00,,0826.0,5.00,0.00,29.9,28.9,00.0,38.9,31.7,09.7,0002.3,0006.96,0013.58,0006.33
2021-09-26 05:44:00,,0826.0,5.00,0.00,29.9,29.0,00.0,38.9,31.7,09.7,0002.1,0006.96,0013.52,0006.35
2021-09-26 05:45:00,,0826.0,5.01,0.00,30.0,29.0,00.0,38.9,31.7,09.7,0002.2,0007.01,0013.30,0006.40
2021-09-26 05:46:00,,0826.0,4.99,0.00,30.0,29.0,00.0,38.9,31.7,09.7,0002.4,0007.04,0013.44,0006.43
2021-09-26 05:47:00,,0826.0,4.99,0.00,30.0,29.0,00.0,39.0,31.8,09.7,0002.4,0007.07,0013.40,0006.47
2021-09-26 05:48:00,,0826.0,5.01,0.00,30.0,29.1,00.0,39.0,31.8,09.7,0002.2,0007.16,0013.17,0006.50
2021-09-26 05:49:00,,0826.0,5.00,0.00,30.0,29.1,00.0,39.0,31.8,09.6,0002.2,0007.16,0012.77,0006.52
2021-09-26 05:50:00,,0826.0,5.00,0.00,30.1,29.1,00.0,39.0,31.8,09.6,0002.3,0007.20,0012.77,0006.56
2021-09-26 05:51:00,,0826.0,5.01,0.00,30.0,28.0,00.0,39.0,31.5,09.6,0002.0,0007.22,0013.17,0006.58
2021-09-26 05:52:00,,0826.0,4.99,0.00,29.9,26.3,00.0,39.0,31.1,09.7,0001.9,0007.25,0012.88,0006.61
2021-09-26 05:53:00,,0825.9,5.00,0.00,29.7,26.2,00.0,39.0,31.1,09.6,0001.7,0007.28,0012.40,0006.64
2021-09-26 05:54:00,,0826.0,5.01,0.00,29.6,26.6,00.0,38.9,31.0,09.7,0001.8,0007.35,0012.59,0006.70
2021-09-26 05:55:00,,0825.9,4.99,0.00,29.6,27.0,00.0,38.9,31.1,09.8,0002.1,0007.38,0013.22,0006.72
2021-09-26 05:56:00,,0825.9,4.99,0.00,29.6,27.4,00.0,38.8,31.2,09.7,0001.8,0007.40,0013.67,0006.75
2021-09-26 05:57:00,,0826.0,5.01,0.00,29.6,27.6,00.0,38.8,31.2,09.8,0001.7,0007.42,0013.84,0006.77
2021-09-26 05:58:00,,0825.9,4.99,0.00,29.6,27.9,00.0,38.8,31.3,09.9,0001.8,0007.42,0013.71,0006.77
2021-09-26 05:59:00,,0825.9,5.01,0.00,29.6,28.1,00.0,38.8,31.3,09.9,0001.9,0007.42,0013.84,0006.79
